Accueil
METAR-TAF:

METAR-TAF

Aéroports :

Pembrey, Pays de Galles

latitude: 51-43N, longitude: 004-22W, altitude: 3 m

Observation

Le bulletin a été fait il y a 57 minutes, à 02:50 UTC
Vent 12 kt de nord/nord-est
Température 2°C
Humidité 87%
Pression 982 hPa
Visibilité 10 km ou plus

METAR: EGOP 110250Z AUTO 03012KT 9999 // FEW044/// BKN050/// 02/M00 Q0982

Heure: 03:47 (03:47 UTC)


TAF: absent

Observations et prévisions météorologiques de plus de 4000 aéroports (messages METAR et TAF).

Les stations disponibles sont représentées par des disques jaunes et rouges sur la carte.

Passer la souris dessus pour voir le nom de la station.

Cliquer dessus pour voir les observations et prévisions météorologiques.

Pour changer de carte: cliquez sur les boutons verts avec une croix noire pour zoomer, sur le bouton vert avec un tiret pour effectuer un zoom arrière, ou sur les flèches vertes pour les cartes adjacentes.


METAR-TAF: